| time (UTC) | temp F | wind direction | speed MPH | gust MPH | rain 1hr in | rain 24hr in | rain mn in | humidity % | barometer mb |
| 20260504150333 | 50 | 17 | 9.0 | 16.0 | 0.00 | 0.00 | 0.00 | 55 | 1010.7 |
| 20260504140826 | 47 | 355 | 8.0 | 16.0 | 0.00 | 0.00 | 0.00 | 60 | 1010.6 |
| 20260504140354 | 47 | 11 | 5.0 | 16.0 | 0.00 | 0.00 | 0.00 | 59 | 1010.6 |
| 20260504130334 | 45 | 21 | 5.0 | 15.0 | 0.00 | 0.00 | 0.00 | 68 | 1009.2 |
| 20260504110336 | 39 | 11 | 3.0 | 5.0 | 0.00 | 0.00 | 0.00 | 89 | 1007.6 |
| 20260504100327 | 40 | 360 | 0.0 | 0.0 | 0.00 | 0.00 | 0.00 | 87 | 1006.6 |
| 20260504081828 | 42 | 199 | 0.0 | 3.0 | 0.00 | 0.00 | 0.00 | 83 | 1006.5 |
| 20260504081318 | 42 | 199 | 2.0 | 3.0 | 0.00 | 0.00 | 0.00 | 83 | 1006.5 |
| 20260504080825 | 42 | 199 | 1.0 | 4.0 | 0.00 | 0.00 | 0.00 | 82 | 1006.6 |
| 20260504080328 | 43 | 199 | 1.0 | 5.0 | 0.00 | 0.00 | 0.00 | 83 | 1006.5 |
| 20260504070321 | 43 | 190 | 5.0 | 6.0 | 0.00 | 0.00 | 0.00 | 82 | 1006.8 |
| 20260504050323 | 47 | 196 | 7.0 | 8.0 | 0.00 | 0.00 | 0.00 | 61 | 1007.2 |
| 20260504045824 | 47 | 201 | 6.0 | 8.0 | 0.00 | 0.00 | 0.00 | 61 | 1007.2 |
| 20260504045327 | 47 | 179 | 1.0 | 6.0 | 0.00 | 0.00 | 0.00 | 60 | 1007.2 |
| 20260504044830 | 47 | 187 | 4.0 | 6.0 | 0.00 | 0.00 | 0.00 | 59 | 1007.1 |
| 20260504044332 | 48 | 153 | 3.0 | 6.0 | 0.00 | 0.00 | 0.00 | 57 | 1007.1 |
| 20260504043819 | 48 | 184 | 5.0 | 6.0 | 0.00 | 0.00 | 0.00 | 56 | 1007.2 |
| 20260504043325 | 49 | 360 | 1.0 | 5.0 | 0.00 | 0.00 | 0.00 | 56 | 1007.3 |
| 20260504042827 | 50 | 215 | 1.0 | 5.0 | 0.00 | 0.00 | 0.00 | 54 | 1007.3 |
| 20260504042329 | 51 | 234 | 0.0 | 4.0 | 0.00 | 0.00 | 0.00 | 54 | 1007.3 |
| 20260504041833 | 52 | 236 | 1.0 | 4.0 | 0.00 | 0.00 | 0.00 | 52 | 1007.3 |
| 20260504041319 | 53 | 232 | 0.0 | 4.0 | 0.00 | 0.00 | 0.00 | 51 | 1007.4 |
| 20260504040821 | 54 | 325 | 2.0 | 4.0 | 0.00 | 0.00 | 0.00 | 50 | 1007.5 |
| 20260504040346 | 54 | 325 | 0.0 | 0.0 | 0.00 | 0.00 | 0.00 | 49 | 1007.6 |
| 20260504035828 | 55 | 325 | 0.0 | 0.0 | 0.00 | 0.00 | 0.00 | 42 | 1007.6 |
| 20260504035352 | 55 | 355 | 0.0 | 0.0 | 0.00 | 0.00 | 0.00 | 40 | 1007.8 |
| 20260504034832 | 56 | 355 | 0.0 | 0.0 | 0.00 | 0.00 | 0.00 | 40 | 1007.8 |
| 20260504034318 | 56 | 355 | 0.0 | 0.0 | 0.00 | 0.00 | 0.00 | 40 | 1007.7 |
| 20260504033845 | 57 | 342 | 0.0 | 5.0 | 0.00 | 0.00 | 0.00 | 35 | 1007.7 |
| 20260504033329 | 57 | 342 | 2.0 | 7.0 | 0.00 | 0.00 | 0.00 | 33 | 1007.6 |
| 20260504032830 | 57 | 315 | 4.0 | 7.0 | 0.00 | 0.00 | 0.00 | 33 | 1007.5 |
| 20260504032353 | 57 | 329 | 4.0 | 8.0 | 0.00 | 0.00 | 0.00 | 34 | 1007.5 |
| 20260504031835 | 58 | 309 | 5.0 | 8.0 | 0.00 | 0.00 | 0.00 | 34 | 1007.5 |
| 20260504031340 | 58 | 331 | 5.0 | 7.0 | 0.00 | 0.00 | 0.00 | 34 | 1007.5 |
| 20260504030825 | 58 | 318 | 5.0 | 7.0 | 0.00 | 0.00 | 0.00 | 35 | 1007.5 |
| 20260504030330 | 58 | 313 | 5.0 | 6.0 | 0.00 | 0.00 | 0.00 | 35 | 1007.4 |
| 20260504025835 | 58 | 318 | 5.0 | 7.0 | 0.00 | 0.00 | 0.00 | 36 | 1007.4 |
| 20260504025338 | 58 | 327 | 5.0 | 7.0 | 0.00 | 0.00 | 0.00 | 36 | 1007.4 |
| 20260504024820 | 58 | 318 | 3.0 | 6.0 | 0.00 | 0.00 | 0.00 | 37 | 1007.3 |
| 20260504024323 | 58 | 324 | 4.0 | 6.0 | 0.00 | 0.00 | 0.00 | 37 | 1007.4 |
| 20260504023846 | 59 | 309 | 4.0 | 6.0 | 0.00 | 0.00 | 0.00 | 38 | 1007.3 |
| 20260504023328 | 59 | 278 | 4.0 | 6.0 | 0.00 | 0.00 | 0.00 | 38 | 1007.2 |
| 20260504022830 | 60 | 279 | 5.0 | 6.0 | 0.00 | 0.00 | 0.00 | 38 | 1007.2 |
| 20260504022333 | 60 | 297 | 5.0 | 6.0 | 0.00 | 0.00 | 0.00 | 37 | 1007.1 |
| 20260504021835 | 61 | 261 | 4.0 | 6.0 | 0.00 | 0.00 | 0.00 | 36 | 1007.3 |
| 20260504021338 | 61 | 285 | 4.0 | 7.0 | 0.00 | 0.00 | 0.00 | 36 | 1007.1 |
| 20260504020821 | 62 | 320 | 2.0 | 7.0 | 0.00 | 0.00 | 0.00 | 33 | 1007.1 |
| 20260504020345 | 63 | 309 | 4.0 | 6.0 | 0.00 | 0.00 | 0.00 | 32 | 1007.0 |
| 20260504015846 | 63 | 308 | 2.0 | 6.0 | 0.00 | 0.00 | 0.00 | 32 | 1006.9 |
| 20260504015328 | 64 | 311 | 3.0 | 7.0 | 0.00 | 0.00 | 0.00 | 33 | 1007.0 |
| 20260504014834 | 64 | 301 | 4.0 | 7.0 | 0.00 | 0.00 | 0.00 | 32 | 1007.0 |
| 20260504014337 | 64 | 301 | 4.0 | 7.0 | 0.00 | 0.00 | 0.00 | 32 | 1007.0 |
| 20260504013840 | 64 | 308 | 3.0 | 8.0 | 0.00 | 0.00 | 0.00 | 32 | 1007.0 |
| 20260504013322 | 65 | 281 | 5.0 | 8.0 | 0.00 | 0.00 | 0.00 | 32 | 1007.1 |
| 20260504012825 | 65 | 296 | 4.0 | 7.0 | 0.00 | 0.00 | 0.00 | 31 | 1007.3 |
| 20260504012328 | 65 | 347 | 2.0 | 9.0 | 0.00 | 0.00 | 0.00 | 31 | 1007.4 |
| 20260504011850 | 65 | 306 | 4.0 | 13.0 | 0.00 | 0.00 | 0.00 | 31 | 1007.4 |
| 20260504011334 | 66 | 326 | 5.0 | 14.0 | 0.00 | 0.00 | 0.00 | 30 | 1007.4 |
| 20260504010821 | 66 | 295 | 5.0 | 14.0 | 0.00 | 0.00 | 0.00 | 30 | 1007.4 |
| 20260504010325 | 66 | 308 | 5.0 | 10.0 | 0.00 | 0.00 | 0.00 | 29 | 1007.6 |
| 20260504005828 | 66 | 360 | 3.0 | 11.0 | 0.00 | 0.00 | 0.00 | 29 | 1007.7 |
| 20260504005350 | 67 | 321 | 5.0 | 18.0 | 0.00 | 0.00 | 0.00 | 29 | 1007.7 |
| 20260504004856 | 67 | 9 | 9.0 | 18.0 | 0.00 | 0.00 | 0.00 | 28 | 1007.7 |
| 20260504004321 | 67 | 318 | 5.0 | 13.0 | 0.00 | 0.00 | 0.00 | 29 | 1007.8 |
| 20260504003828 | 67 | 309 | 7.0 | 13.0 | 0.00 | 0.00 | 0.00 | 29 | 1007.7 |
| 20260504003331 | 67 | 312 | 5.0 | 13.0 | 0.00 | 0.00 | 0.00 | 28 | 1007.7 |
| 20260504002833 | 68 | 329 | 7.0 | 13.0 | 0.00 | 0.00 | 0.00 | 28 | 1007.7 |
| 20260504002336 | 68 | 310 | 7.0 | 11.0 | 0.00 | 0.00 | 0.00 | 29 | 1007.8 |
| 20260504001859 | 67 | 265 | 5.0 | 12.0 | 0.00 | 0.00 | 0.00 | 30 | 1007.9 |
| 20260504001321 | 68 | 281 | 9.0 | 12.0 | 0.00 | 0.00 | 0.00 | 30 | 1007.9 |
| 20260504000844 | 68 | 286 | 9.0 | 12.0 | 0.00 | 0.00 | 0.00 | 30 | 1008.0 |
| 20260504000328 | 68 | 350 | 4.0 | 11.0 | 0.00 | 0.00 | 0.00 | 30 | 1007.9 |
| 20260503235829 | 69 | 321 | 6.0 | 11.0 | 0.00 | 0.00 | 0.00 | 31 | 1008.0 |
| 20260503235332 | 69 | 310 | 4.0 | 11.0 | 0.00 | 0.00 | 0.00 | 32 | 1008.1 |
| 20260503234834 | 69 | 273 | 5.0 | 9.0 | 0.00 | 0.00 | 0.00 | 30 | 1008.1 |
| 20260503234317 | 69 | 276 | 0.0 | 12.0 | 0.00 | 0.00 | 0.00 | 32 | 1008.1 |
| 20260503233822 | 69 | 244 | 5.0 | 12.0 | 0.00 | 0.00 | 0.00 | 31 | 1008.1 |
| 20260503233330 | 68 | 156 | 3.0 | 6.0 | 0.00 | 0.00 | 0.00 | 30 | 1008.1 |
| 20260503232833 | 68 | 131 | 1.0 | 6.0 | 0.00 | 0.00 | 0.00 | 33 | 1008.1 |
| 20260503232335 | 67 | 178 | 1.0 | 7.0 | 0.00 | 0.00 | 0.00 | 32 | 1008.2 |
| 20260503231819 | 68 | 200 | 4.0 | 7.0 | 0.00 | 0.00 | 0.00 | 32 | 1008.2 |
| 20260503231322 | 68 | 290 | 4.0 | 6.0 | 0.00 | 0.00 | 0.00 | 33 | 1008.4 |
| 20260503230825 | 68 | 221 | 0.0 | 7.0 | 0.00 | 0.00 | 0.00 | 33 | 1008.4 |
| 20260503230329 | 69 | 221 | 3.0 | 14.0 | 0.00 | 0.00 | 0.00 | 33 | 1008.3 |
| 20260503225852 | 68 | 270 | 6.0 | 16.0 | 0.00 | 0.00 | 0.00 | 32 | 1008.4 |
| 20260503225333 | 69 | 234 | 12.0 | 16.0 | 0.00 | 0.00 | 0.00 | 32 | 1008.2 |
| 20260503224834 | 69 | 210 | 8.0 | 11.0 | 0.00 | 0.00 | 0.00 | 33 | 1008.3 |
| 20260503224340 | 68 | 317 | 2.0 | 9.0 | 0.00 | 0.00 | 0.00 | 35 | 1008.4 |
| 20260503223822 | 68 | 86 | 0.0 | 9.0 | 0.00 | 0.00 | 0.00 | 36 | 1008.4 |
| 20260503223327 | 68 | 109 | 7.0 | 9.0 | 0.00 | 0.00 | 0.00 | 36 | 1008.4 |
| 20260503222832 | 68 | 58 | 3.0 | 8.0 | 0.00 | 0.00 | 0.00 | 37 | 1008.4 |
| 20260503222334 | 67 | 80 | 2.0 | 7.0 | 0.00 | 0.00 | 0.00 | 38 | 1008.5 |
| 20260503221838 | 67 | 57 | 2.0 | 9.0 | 0.00 | 0.00 | 0.00 | 38 | 1008.4 |
| 20260503221320 | 66 | 66 | 5.0 | 10.0 | 0.00 | 0.00 | 0.00 | 38 | 1008.6 |
| 20260503220823 | 67 | 98 | 8.0 | 10.0 | 0.00 | 0.00 | 0.00 | 39 | 1008.7 |
| 20260503220331 | 67 | 99 | 6.0 | 10.0 | 0.00 | 0.00 | 0.00 | 40 | 1008.8 |
| 20260503215853 | 66 | 80 | 4.0 | 9.0 | 0.00 | 0.00 | 0.00 | 41 | 1008.9 |
| 20260503215334 | 66 | 82 | 3.0 | 9.0 | 0.00 | 0.00 | 0.00 | 40 | 1009.0 |
| 20260503214836 | 66 | 71 | 5.0 | 10.0 | 0.00 | 0.00 | 0.00 | 41 | 1009.0 |
| 20260503214318 | 66 | 132 | 7.0 | 10.0 | 0.00 | 0.00 | 0.00 | 40 | 1009.2 |
| 20260503213825 | 66 | 101 | 6.0 | 10.0 | 0.00 | 0.00 | 0.00 | 41 | 1010.1 |
| 20260503213351 | 65 | 72 | 3.0 | 10.0 | 0.00 | 0.00 | 0.00 | 42 | 1010.2 |
| 20260503212818 | 65 | 98 | 7.0 | 9.0 | 0.00 | 0.00 | 0.00 | 41 | 1010.3 |
| 20260503212323 | 65 | 48 | 3.0 | 10.0 | 0.00 | 0.00 | 0.00 | 42 | 1010.3 |
| 20260503211825 | 65 | 26 | 1.0 | 10.0 | 0.00 | 0.00 | 0.00 | 42 | 1010.5 |
| 20260503211330 | 65 | 69 | 6.0 | 11.0 | 0.00 | 0.00 | 0.00 | 43 | 1010.7 |
| 20260503210853 | 65 | 26 | 7.0 | 11.0 | 0.00 | 0.00 | 0.00 | 41 | 1010.7 |
| 20260503210340 | 65 | 355 | 6.0 | 8.0 | 0.00 | 0.00 | 0.00 | 42 | 1010.9 |
| 20260503205820 | 65 | 143 | 1.0 | 9.0 | 0.00 | 0.00 | 0.00 | 41 | 1010.8 |
| 20260503205328 | 65 | 169 | 6.0 | 11.0 | 0.00 | 0.00 | 0.00 | 42 | 1011.0 |
| 20260503204829 | 65 | 170 | 4.0 | 12.0 | 0.00 | 0.00 | 0.00 | 43 | 1011.0 |
| 20260503204333 | 65 | 226 | 6.0 | 12.0 | 0.00 | 0.00 | 0.00 | 42 | 1011.1 |
| 20260503203834 | 65 | 202 | 6.0 | 11.0 | 0.00 | 0.00 | 0.00 | 43 | 1011.2 |
| 20260503203321 | 64 | 231 | 7.0 | 11.0 | 0.00 | 0.00 | 0.00 | 44 | 1011.2 |
| 20260503202827 | 64 | 236 | 4.0 | 12.0 | 0.00 | 0.00 | 0.00 | 45 | 1011.2 |
| 20260503202329 | 63 | 211 | 9.0 | 14.0 | 0.00 | 0.00 | 0.00 | 44 | 1011.4 |
| 20260503201836 | 63 | 213 | 7.0 | 14.0 | 0.00 | 0.00 | 0.00 | 43 | 1011.4 |
| 20260503201339 | 63 | 200 | 8.0 | 13.0 | 0.00 | 0.00 | 0.00 | 43 | 1011.4 |
| 20260503200841 | 62 | 186 | 9.0 | 12.0 | 0.00 | 0.00 | 0.00 | 46 | 1011.3 |
| 20260503200327 | 60 | 186 | 9.0 | 12.0 | 0.00 | 0.00 | 0.00 | 47 | 1011.5 |
| 20260503195829 | 58 | 183 | 7.0 | 11.0 | 0.00 | 0.00 | 0.00 | 51 | 1011.6 |
| 20260503195333 | 57 | 181 | 9.0 | 12.0 | 0.00 | 0.00 | 0.00 | 50 | 1011.6 |
| 20260503194818 | 57 | 219 | 9.0 | 18.0 | 0.00 | 0.00 | 0.00 | 49 | 1011.7 |
| 20260503194325 | 58 | 213 | 12.0 | 20.0 | 0.00 | 0.00 | 0.00 | 46 | 1011.8 |
| 20260503193848 | 58 | 281 | 11.0 | 20.0 | 0.00 | 0.00 | 0.00 | 46 | 1011.8 |
| 20260503193330 | 59 | 244 | 11.0 | 15.0 | 0.00 | 0.00 | 0.00 | 48 | 1012.1 |
| 20260503192835 | 59 | 281 | 9.0 | 20.0 | 0.00 | 0.00 | 0.00 | 47 | 1012.1 |
| 20260503192322 | 59 | 238 | 9.0 | 28.0 | 0.00 | 0.00 | 0.00 | 49 | 1011.9 |
| 20260503191848 | 61 | 232 | 12.0 | 28.0 | 0.00 | 0.00 | 0.00 | 47 | 1012.1 |
| 20260503191353 | 63 | 256 | 14.0 | 23.0 | 0.00 | 0.00 | 0.00 | 39 | 1011.8 |
| 20260503190855 | 64 | 211 | 10.0 | 15.0 | 0.00 | 0.00 | 0.00 | 38 | 1011.7 |
| 20260503190338 | 64 | 283 | 7.0 | 13.0 | 0.00 | 0.00 | 0.00 | 39 | 1011.8 |
| 20260503185821 | 64 | 264 | 3.0 | 13.0 | 0.00 | 0.00 | 0.00 | 39 | 1011.8 |
| 20260503185323 | 64 | 208 | 5.0 | 10.0 | 0.00 | 0.00 | 0.00 | 38 | 1012.0 |
| 20260503184829 | 64 | 238 | 7.0 | 10.0 | 0.00 | 0.00 | 0.00 | 39 | 1012.1 |
| 20260503184332 | 64 | 350 | 4.0 | 9.0 | 0.00 | 0.00 | 0.00 | 43 | 1012.2 |
| 20260503183835 | 64 | 290 | 6.0 | 9.0 | 0.00 | 0.00 | 0.00 | 39 | 1012.4 |
| 20260503183339 | 64 | 217 | 5.0 | 11.0 | 0.00 | 0.00 | 0.00 | 39 | 1012.7 |
| 20260503182820 | 64 | 298 | 5.0 | 12.0 | 0.00 | 0.00 | 0.00 | 39 | 1012.8 |
| 20260503182323 | 64 | 270 | 4.0 | 13.0 | 0.00 | 0.00 | 0.00 | 38 | 1012.8 |
| 20260503181829 | 65 | 272 | 9.0 | 16.0 | 0.00 | 0.00 | 0.00 | 38 | 1012.9 |
| 20260503181333 | 64 | 229 | 9.0 | 16.0 | 0.00 | 0.00 | 0.00 | 40 | 1013.0 |
| 20260503180817 | 64 | 225 | 4.0 | 16.0 | 0.00 | 0.00 | 0.00 | 39 | 1013.1 |
| 20260503180325 | 64 | 184 | 7.0 | 16.0 | 0.00 | 0.00 | 0.00 | 38 | 1013.3 |
| 20260503175826 | 64 | 221 | 7.0 | 10.0 | 0.00 | 0.00 | 0.00 | 38 | 1013.2 |
| 20260503175328 | 64 | 350 | 5.0 | 18.0 | 0.00 | 0.00 | 0.00 | 39 | 1013.4 |
| 20260503174850 | 64 | 216 | 11.0 | 18.0 | 0.00 | 0.00 | 0.00 | 40 | 1013.5 |
| 20260503174332 | 63 | 202 | 8.0 | 13.0 | 0.00 | 0.00 | 0.00 | 41 | 1013.5 |
| 20260503173834 | 63 | 240 | 7.0 | 18.0 | 0.00 | 0.00 | 0.00 | 42 | 1013.7 |
| 20260503173321 | 63 | 213 | 8.0 | 18.0 | 0.00 | 0.00 | 0.00 | 42 | 1013.8 |
| 20260503172822 | 62 | 306 | 8.0 | 15.0 | 0.00 | 0.00 | 0.00 | 42 | 1013.8 |
| 20260503172325 | 62 | 250 | 8.0 | 15.0 | 0.00 | 0.00 | 0.00 | 43 | 1014.0 |
| 20260503171831 | 62 | 243 | 6.0 | 13.0 | 0.00 | 0.00 | 0.00 | 43 | 1014.0 |
| 20260503171333 | 61 | 223 | 5.0 | 16.0 | 0.00 | 0.00 | 0.00 | 44 | 1014.1 |
| 20260503170855 | 61 | 246 | 8.0 | 16.0 | 0.00 | 0.00 | 0.00 | 44 | 1014.1 |
| 20260503170400 | 61 | 242 | 10.0 | 13.0 | 0.00 | 0.00 | 0.00 | 44 | 1014.1 |
| 20260503150833 | 57 | 228 | 8.0 | 13.0 | 0.00 | 0.00 | 0.00 | 58 | 1015.1 |